User: anonymous   Login
Location: Unspecified
(0.0000°N, 0.0000°E)
Time: 02:20:30
(UTC+00:00)
Language:

CHANDRAYAAN-1 - Orbit

View from above orbital plane
View from above orbital plane
View from above satellite
View from above satellite

Ground track
Ground track

The orbit data is extracted from the following two-line orbital elements,

1 33405U 08052A   08304.99924557 -.00001620  00000-0  00000+0 0  9994
2 33405 018.0795 351.8234 9494907 173.1090 116.9936 00.16996926    09
Epoch (UTC): 30 October 2008 23:58:54
Eccentricity: 0.9494907
inclination: 18.0795°
perigee height: 575 km
apogee height: 261994 km
right ascension of ascending node: 351.8234°
argument of perigee: 173.1090°
revolutions per day: 0.16996926
mean anomaly at epoch: 116.9936°
orbit number at epoch: 0

The dashed part of the orbit path shows where the satellite is in the earth's shadow,  

DLR